Weather History for Mount Holly, NJ

Change the Weather History Date:

Saturday, September 22, 2012

  Actual Average (KWRI) Record (KWRI)
Temperature  
Mean Temperature 68 °F -  
Max Temperature 82 °F 73 °F 89 °F (2010)
Min Temperature 54 °F 53 °F 44 °F (1997)
Cooling Degree Days 3    
Growing Degree Days 18 (Base 50)    
Moisture  
Dew Point 62 °F    
Average Humidity 82    
Maximum Humidity 97    
Minimum Humidity 54    
Precipitation  
Precipitation 0.61 in - - ()
Sea Level Pressure  
Sea Level Pressure 29.88 in    
Wind  
Wind Speed 3 mph (SSW)    
Max Wind Speed 15 mph    
Max Gust Speed 32 mph    
Visibility 8 miles    
Events Rain    
Averages and records for this station are not official NWS values.
T = Trace of Precipitation, MM = Missing Value Source: NWS Daily Summary

Daily Weather History Graph

Daily Weather History Graph

Search for Another Location

Airport:

Trip Planner

Search our weather history database for the weather conditions in past years. The results will help you decide how hot, cold, wet, or windy it might be!

Date:

Astronomy

Sep. 22, 2012 Rise Set
Actual Time 6:47 AM EDT 6:55 PM EDT
Civil Twilight 6:20 AM EDT 7:22 PM EDT
Nautical Twilight 5:48 AM EDT 7:54 PM EDT
Astronomical Twilight 5:16 AM EDT 8:26 PM EDT
Moon 2:02 PM EDT (9/22) 11:58 PM EDT (9/22)
Length of Visible Light 13h 02m
Length of Day
12h 08m
Waxing Crescent, 48% of the Moon is Illuminated
Sep 22
Waxing Crescent
Sep 22
First Quarter
Sep 29
Full
Oct 8
Last Quarter
Oct 15
New

Hourly Weather History & Observations

Time (EDT) Temp. Heat Index Dew Point Humidity Pressure Visibility Wind Dir Wind Speed Gust Speed Precip Events Conditions
12:54 AM 55.9 °F - 54.0 °F 93% 30.00 in 10.0 mi Calm Calm - N/A   Clear
1:54 AM 55.0 °F - 53.1 °F 93% 30.00 in 9.0 mi Calm Calm - N/A   Clear
2:54 AM 54.0 °F - 53.1 °F 97% 29.97 in 10.0 mi ESE 3.5 mph - N/A   Clear
3:54 AM 54.0 °F - 53.1 °F 97% 29.97 in 10.0 mi Calm Calm - N/A   Partly Cloudy
4:54 AM 55.0 °F - 54.0 °F 96% 29.96 in 10.0 mi Calm Calm - N/A   Overcast
5:54 AM 55.9 °F - 54.0 °F 93% 29.96 in 10.0 mi Calm Calm - N/A   Partly Cloudy
6:54 AM 55.0 °F - 54.0 °F 96% 29.96 in 10.0 mi Calm Calm - N/A   Partly Cloudy
7:54 AM 59.0 °F - 57.9 °F 96% 29.95 in 10.0 mi SE 3.5 mph - N/A   Clear
8:54 AM 66.9 °F - 62.1 °F 84% 29.93 in 10.0 mi Variable 5.8 mph - N/A   Clear
9:54 AM 72.0 °F - 64.0 °F 76% 29.91 in 10.0 mi Variable 5.8 mph - N/A   Clear
10:54 AM 75.9 °F - 64.9 °F 69% 29.88 in 10.0 mi Variable 5.8 mph - N/A   Clear
11:54 AM 78.1 °F - 64.0 °F 62% 29.86 in 10.0 mi Variable 5.8 mph - N/A   Partly Cloudy
12:54 PM 81.0 °F 82.5 °F 64.0 °F 56% 29.84 in 10.0 mi SW 8.1 mph 18.4 mph N/A   Partly Cloudy
1:54 PM 82.0 °F 83.8 °F 64.9 °F 56% 29.82 in 10.0 mi SSW 6.9 mph 16.1 mph N/A   Partly Cloudy
2:54 PM 81.0 °F 82.5 °F 64.0 °F 56% 29.80 in 10.0 mi Variable 6.9 mph - N/A   Partly Cloudy
3:54 PM 81.0 °F 82.5 °F 64.0 °F 56% 29.78 in 10.0 mi Variable 5.8 mph - N/A   Partly Cloudy
4:54 PM 81.0 °F 82.2 °F 63.0 °F 54% 29.79 in 10.0 mi Variable 4.6 mph - N/A   Partly Cloudy
5:54 PM 79.0 °F - 64.9 °F 62% 29.78 in 10.0 mi South 3.5 mph - N/A   Partly Cloudy
6:54 PM 75.0 °F - 64.9 °F 71% 29.80 in 10.0 mi South 3.5 mph - N/A   Partly Cloudy
7:54 PM 73.9 °F - 64.9 °F 73% 29.80 in 10.0 mi Variable 4.6 mph - N/A   Scattered Clouds
8:26 PM 71.6 °F - 64.4 °F 78% 29.85 in 1.8 mi West 15.0 mph 32.2 mph 0.14 in Rain Rain
8:33 PM 68.0 °F - 66.2 °F 94% 29.84 in 0.8 mi West 6.9 mph 31.1 mph 0.26 in Rain Heavy Rain
8:39 PM 68.0 °F - 66.2 °F 94% 29.84 in 1.2 mi West 3.5 mph - 0.31 in Rain Heavy Rain
8:45 PM 68.0 °F - 66.2 °F 94% 29.83 in 3.0 mi Calm Calm - 0.31 in Rain Light Rain
8:54 PM 68.0 °F - 66.0 °F 93% 29.83 in 10.0 mi Calm Calm - 0.32 in   Overcast
9:19 PM 68.0 °F - 64.4 °F 88% 29.85 in 1.8 mi Variable 3.5 mph 16.1 mph 0.12 in Rain Heavy Rain
9:35 PM 66.2 °F - 64.4 °F 94% 29.86 in 2.5 mi Variable 3.5 mph - 0.19 in Rain Heavy Rain
9:54 PM 66.0 °F - 64.0 °F 93% 29.86 in 3.0 mi South 3.5 mph - 0.26 in Rain Rain
10:54 PM 66.0 °F - 64.0 °F 93% 29.87 in 8.0 mi Calm Calm - 0.03 in   Overcast
11:54 PM 64.9 °F - 64.0 °F 97% 29.89 in 6.0 mi Calm Calm - N/A   Overcast